Home   Weather   Greeley   Past weeks

Flag for USA Past Weather in Greeley, Colorado, USA — Yesterday and Last 2 Weeks

Now
32 °F

Clear.


Feels Like: 25 °F
Forecast: 23 / 36 °F
Wind: 8 mph from North

Location: Greeley / Weld

Current Time: Jan 24, 2017 at 2:07:02 am

Latest Report: Jan 24, 2017 at 12:56 am


Visibility: 10 mi

Pressure: 29.53 "Hg (24.71 "Hg at 1424m altitude)

Humidity: 96%

Dew Point: 31 °F

Location of GreeleyLocation

Past Weather in Greeley — Graph

°F

Greeley Temperature Yesterday

Maximum temperature yesterday: 50 °F (at 2:56 pm)
Minimum temperature yesterday: 21 °F (at 5:56 am)
Average temperature yesterday: 34 °F

High & Low Weather Summary for the Past Weeks

 TemperatureHumidityPressure
High56 °F (Jan 9, 11:56 am)100% (Jan 9, 4:38 am)30.53 "Hg (Jan 9, 4:38 am)
Low15 °F (Jan 17, 6:56 am)20% (Jan 22, 1:56 pm)29.39 "Hg (Jan 21, 7:14 am)
Average31 °F75%29.93 "Hg
* Reported Jan 9 12:56 am — Jan 24 12:56 am, Greeley, Weather by CustomWeather, © 2017

Note: Actual official high and low records may vary slightly from our data, if they occured in-between our weather recording intervals... More about our weather records

Advertising

Greeley Weather History for the Previous 24 Hours

Scroll right to see more
 ConditionsComfort  
Time TempWeatherWind HumidityBarometerVisibility
12:56 am
Tue, Jan 24
32 °FClear.8 mph96%29.53 "Hg10 mi
11:56 pm
Mon, Jan 23
33 °FPassing clouds.12 mph92%29.59 "Hg10 mi
10:56 pm33 °FLight rain. Partly cloudy.15 mph96%29.61 "Hg10 mi
9:56 pm35 °FLight rain. Overcast.18 mph85%29.65 "Hg10 mi
8:56 pm37 °FOvercast.No wind62%29.59 "Hg10 mi
7:56 pm36 °FPassing clouds.No wind67%29.60 "Hg10 mi
6:56 pm36 °FPassing clouds.8 mph67%29.62 "Hg10 mi
5:56 pm38 °FPassing clouds.3 mph65%29.62 "Hg10 mi
4:56 pm43 °FMore clouds than sun.10 mph56%29.60 "Hg10 mi
3:56 pm45 °FScattered clouds.5 mph51%29.57 "Hg10 mi
2:56 pm50 °FPartly sunny.12 mph41%29.55 "Hg10 mi
1:56 pm48 °FSunny.6 mph41%29.56 "Hg10 mi
12:56 pm45 °FSunny.6 mph45%29.59 "Hg10 mi
10:56 am36 °FSunny.6 mph59%29.69 "Hg10 mi
9:56 am32 °FSunny.No wind64%29.74 "Hg10 mi
8:56 am34 °FPartly sunny.3 mph61%29.73 "Hg10 mi
7:56 am26 °FSunny.5 mph81%29.75 "Hg10 mi
6:56 am21 °FClear.8 mph92%29.78 "Hg10 mi
5:56 am21 °FClear.5 mph88%29.77 "Hg10 mi
4:56 am22 °FClear.7 mph89%29.78 "Hg10 mi
3:56 am24 °FPassing clouds.6 mph88%29.75 "Hg10 mi
2:56 am27 °FClear.5 mph85%29.74 "Hg10 mi
Weather by CustomWeather, © 2017

See weather overviewHow to use our weather pages